TimeEST,TemperatureF,Dew PointF,Humidity,Sea Level PressureIn,VisibilityMPH,Wind Direction,Wind SpeedMPH,Gust SpeedMPH,PrecipitationIn,Events,Conditions,WindDirDegrees,DateUTC
12:54 AM,37.9,32.0,79,29.92,10.0,SE,3.5,-,N/A,,Clear,130,2008-02-09 05:54:00
1:54 AM,34.0,30.9,89,29.91,10.0,Calm,Calm,-,N/A,,Clear,0,2008-02-09 06:54:00
2:54 AM,35.1,30.0,82,29.91,10.0,Calm,Calm,-,N/A,,Clear,0,2008-02-09 07:54:00
3:54 AM,32.0,28.9,88,29.91,10.0,NNW,5.8,-,N/A,,Clear,340,2008-02-09 08:54:00
4:54 AM,33.1,30.0,89,29.91,10.0,Calm,Calm,-,N/A,,Clear,0,2008-02-09 09:54:00
5:54 AM,30.9,28.9,92,29.92,10.0,Calm,Calm,-,N/A,,Clear,0,2008-02-09 10:54:00
6:54 AM,30.0,28.0,92,29.94,9.0,Calm,Calm,-,N/A,,Clear,0,2008-02-09 11:54:00
7:54 AM,30.9,28.9,92,29.95,9.0,Calm,Calm,-,N/A,,Clear,0,2008-02-09 12:54:00
8:54 AM,37.0,30.0,76,29.95,10.0,Calm,Calm,-,N/A,,Clear,0,2008-02-09 13:54:00
9:54 AM,46.0,30.0,54,29.94,10.0,Calm,Calm,-,N/A,,Clear,0,2008-02-09 14:54:00
10:54 AM,50.0,30.9,48,29.94,10.0,Calm,Calm,-,N/A,,Partly Cloudy,0,2008-02-09 15:54:00
11:54 AM,57.0,28.0,33,29.91,10.0,Variable,5.8,-,N/A,,Partly Cloudy,0,2008-02-09 16:54:00
12:54 PM,60.1,17.1,19,29.88,10.0,NW,19.6,23.0,N/A,,Clear,320,2008-02-09 17:54:00
1:54 PM,60.1,14.0,16,29.87,10.0,NW,20.7,29.9,N/A,,Clear,310,2008-02-09 18:54:00
2:54 PM,59.0,12.0,16,29.86,10.0,WNW,18.4,31.1,N/A,,Clear,290,2008-02-09 19:54:00
3:54 PM,59.0,8.1,13,29.88,10.0,WNW,13.8,23.0,N/A,,Clear,290,2008-02-09 20:54:00
4:54 PM,55.9,12.9,18,29.92,10.0,West,11.5,-,N/A,,Clear,260,2008-02-09 21:54:00
5:54 PM,51.1,19.0,28,29.96,10.0,WNW,11.5,-,N/A,,Clear,290,2008-02-09 22:54:00
6:54 PM,46.9,16.0,29,30.00,10.0,NW,9.2,-,N/A,,Clear,320,2008-02-09 23:54:00
7:54 PM,46.9,12.0,24,30.03,10.0,WNW,10.4,-,N/A,,Clear,290,2008-02-10 00:54:00
8:54 PM,44.1,10.9,26,30.05,10.0,WNW,4.6,-,N/A,,Clear,300,2008-02-10 01:54:00
9:54 PM,44.1,12.0,27,30.06,10.0,WNW,8.1,-,N/A,,Clear,290,2008-02-10 02:54:00
10:54 PM,44.1,12.9,28,30.06,10.0,West,9.2,-,N/A,,Clear,280,2008-02-10 03:54:00
11:54 PM,44.1,14.0,30,30.06,10.0,West,8.1,-,N/A,,Clear,280,2008-02-10 04:54:00